Wetbulb
55.45 55.48 54.16 53.36 53.32 52.27 52.77 52.26 50.86 50.11 49.39 47.86 45.98 45.38 44.54 44.45 44.56 45.33 45.88 45.53 45.48 45.16 44.15 43.69 42.59 43.40 41.72 41.11 41.78 40.84 39.92 41.17 40.52 38.60 39.26 43.83 45.06 43.80 42.26 42.41 42.51 43.06 42.54
53.68 53.45 52.37 52.46 52.13 51.39 51.88 51.22 50.97 49.54 48.71 47.86 46.88 46.56 44.88 43.63 43.40 43.74 44.27 43.90 43.82 43.87 44.12 42.87 41.97 41.87 41.35 40.26 39.39 39.06 38.10 39.44 39.61 36.46 37.24 39.02 42.53 42.77 41.62 41.29 42.21 40.50 41.75
51.85 51.52 50.45 50.43 50.82 50.52 50.78 51.05 50.52 49.77 49.19 48.15 47.26 45.18 44.76 43.48 42.27 42.05 40.89 42.24 43.17 43.30 42.79 42.23 41.02 40.47 40.17 38.93 38.06 38.60 37.32 36.36 37.47 37.80 36.80 33.89 34.70 36.93 40.37 39.33 40.13 40.17 40.18
52.17 50.80 49.09 48.77 49.49 49.80 51.10 51.00 50.99 50.11 48.49 47.32 45.73 44.07 42.35 41.30 41.61 41.77 41.59 40.33 41.64 41.84 42.46 41.98 40.37 39.97 39.17 37.80 38.15 38.95 36.54 36.40 34.06 35.71 37.88 35.66 34.63 31.91 35.14 38.12 36.93 41.64 40.66
50.38 49.06 48.90 48.51 48.90 48.74 48.29 49.55 50.63 48.73 47.70 46.73 46.14 44.25 43.31 42.35 42.32 41.49 39.84 39.23 39.74 40.47 41.72 40.46 38.30 37.07 37.76 37.13 36.40 35.53 35.64 35.25 34.41 33.15 32.23 32.83 32.40 31.63 30.57 28.45 30.45 35.58 39.07
49.71 48.93 48.58 48.70 47.53 47.55 47.38 47.42 48.74 47.40 47.22 46.81 46.20 45.07 42.31 41.02 40.28 39.34 38.64 38.69 38.88 39.11 39.99 38.88 36.50 36.16 36.53 36.32 35.68 34.62 34.17 33.67 33.43 33.33 32.05 31.00 29.41 27.98 27.68 26.86 27.13 28.95 33.55
48.24 47.72 47.40 47.17 47.26 46.58 45.79 46.36 46.31 45.99 46.25 45.90 45.54 44.33 42.75 41.99 40.65 39.69 38.76 38.05 37.88 37.57 35.78 35.86 34.96 34.59 35.39 35.57 35.21 34.39 33.43 32.40 31.36 31.99 31.38 31.66 30.89 30.66 30.01 28.05 27.13 28.77 35.68
47.56 47.51 47.86 47.39 46.51 46.35 45.02 45.35 45.14 45.07 45.29 44.73 43.91 43.07 42.89 42.42 41.99 39.87 38.39 38.65 37.75 36.50 35.74 34.89 35.12 34.91 35.47 34.86 34.07 33.20 33.08 32.24 31.17 31.09 31.17 31.21 31.38 31.57 30.87 29.11 27.76 26.83 29.60
45.27 45.92 46.22 46.35 46.78 45.82 44.99 44.76 44.09 43.94 43.94 43.65 43.49 42.91 42.68 41.54 40.38 39.34 37.88 37.44 37.15 37.17 34.84 34.61 34.31 34.47 34.61 34.40 33.78 32.26 32.30 31.89 31.23 30.78 30.86 30.79 31.42 31.75 31.70 31.18 30.63 26.83 24.18
46.34 46.93 47.13 46.31 47.11 46.46 45.52 44.35 43.51 43.89 43.91 43.51 42.76 42.73 41.35 40.49 38.84 38.30 37.57 37.32 36.25 36.14 35.37 34.23 34.05 34.09 33.99 33.98 33.40 32.26 32.60 31.42 30.99 31.07 30.77 30.79 30.94 30.84 31.13 31.22 30.81 29.89 26.48
45.36 45.52 46.48 47.10 46.35 45.61 45.24 44.25 43.49 43.56 43.30 43.67 42.15 41.17 39.93 39.95 38.60 37.76 37.13 36.13 36.07 35.96 35.20 34.82 34.41 33.96 33.49 33.29 32.35 32.01 32.50 31.25 29.82 29.86 29.88 30.24 30.78 29.21 29.95 30.39 29.92 28.99 28.85
45.81 45.72 45.99 45.75 45.09 44.61 45.16 45.13 43.62 43.75 43.12 43.70 42.27 40.63 39.48 38.15 36.87 36.88 37.02 37.01 35.52 35.42 35.14 34.95 34.80 34.72 33.83 32.36 31.85 31.71 31.79 30.63 28.77 27.93 27.22 26.71 30.04 25.83 26.70 27.36 26.50 26.37 28.33
43.04 44.26 44.91 45.61 44.54 40.99 41.89 44.35 44.16 43.61 43.33 43.37 41.91 40.34 39.11 37.54 36.29 36.18 36.35 36.54 35.26 34.39 34.28 33.83 33.41 33.39 32.86 31.92 31.56 31.48 30.88 29.86 27.82 26.18 24.71 24.43 24.08 22.46 23.49 23.98 23.99 24.65 28.62
43.63 41.67 41.97 41.20 43.41 44.81 43.31 44.69 43.75 43.10 43.26 42.16 40.73 38.70 37.62 37.07 36.55 36.35 36.03 35.27 34.89 33.36 32.32 32.59 32.57 32.48 32.16 32.02 32.27 31.48 29.98 29.27 27.53 26.08 24.59 23.25 22.01 21.42 22.26 22.65 21.88 23.65 24.75
42.09 41.33 42.56 43.36 41.64 40.60 41.79 43.87 42.51 42.59 42.17 40.90 39.64 38.66 37.98 36.32 35.86 35.62 35.37 34.53 34.15 33.29 32.55 31.26 30.92 30.41 30.75 31.62 30.55 30.51 28.76 28.31 26.54 26.27 25.46 25.07 26.95 27.53 25.41 21.79 20.11 21.38 22.85
42.04 42.79 44.48 44.47 43.10 43.02 43.03 43.75 42.14 42.11 41.49 40.50 39.05 38.68 37.66 36.26 35.04 34.69 34.30 33.82 32.92 31.89 30.85 30.41 29.00 25.48 29.17 32.98 34.18 30.88 29.35 28.94 27.68 25.75 25.44 26.00 27.19 27.16 27.13 27.28 26.41 23.38 20.61
43.09 43.92 44.23 45.28 44.92 43.52 43.52 43.50 42.35 41.87 40.85 40.01 39.75 38.64 37.91 35.99 34.76 34.87 34.54 33.26 31.69 31.15 31.04 29.78 28.73 25.49 25.20 32.17 33.27 31.40 28.22 25.85 23.36 22.67 25.51 25.98 26.23 24.91 25.11 26.17 26.91 25.60 24.77
42.43 43.63 43.53 45.92 45.34 44.50 43.49 42.92 42.74 41.50 41.61 40.75 40.43 39.61 38.23 35.63 34.57 34.21 33.49 32.22 32.02 31.54 30.13 29.23 28.11 24.85 25.85 31.31 32.54 30.37 25.85 23.03 22.36 22.03 19.05 19.14 15.88 18.65 16.68 18.95 21.86 21.90 22.17
43.99 44.97 45.32 44.91 44.33 43.63 42.96 42.54 41.96 41.77 41.65 40.72 40.37 39.82 38.41 35.71 33.98 33.18 32.47 32.46 31.79 31.06 29.77 29.62 27.49 24.15 23.61 30.69 31.23 28.07 25.20 24.95 21.17 20.04 17.64 18.64 14.51 23.19 25.34 16.69 12.24 10.58 12.72
45.41 45.77 44.68 42.93 42.59 42.19 42.33 40.73 40.17 40.34 40.21 40.41 40.36 40.25 38.69 36.53 33.80 33.19 32.41 32.76 32.46 31.39 30.61 29.49 28.44 27.71 23.23 29.03 30.55 28.08 25.67 23.95 24.43 23.61 23.89 24.85 19.65 22.96 23.56 19.89 17.36 12.94 10.09
46.07 44.05 42.99 41.44 41.63 40.36 40.50 35.16 34.82 35.93 37.56 39.77 40.63 39.96 38.72 37.13 35.01 33.16 33.01 32.50 32.31 31.24 29.50 28.61 28.09 26.91 24.54 25.47 29.25 30.77 24.66 25.31 25.00 24.22 21.57 22.92 24.21 22.82 22.38 22.26 19.85 17.24 16.41
46.20 44.28 42.17 41.18 41.37 40.20 36.28 34.67 34.05 34.17 35.08 36.31 36.56 36.78 36.97 37.05 34.99 32.82 32.47 32.30 32.02 29.89 28.42 27.59 26.02 25.21 24.83 27.33 28.73 29.75 28.77 25.11 25.59 24.73 22.39 21.31 24.01 22.28 21.09 19.57 19.49 19.77 17.83
45.73 44.88 42.03 40.48 39.89 39.08 36.60 34.64 33.79 34.44 35.40 35.37 34.55 34.90 35.39 35.06 34.43 32.94 32.08 31.66 30.67 29.01 27.70 26.80 24.45 23.85 24.95 24.95 28.78 28.84 28.22 24.81 21.90 21.23 21.69 23.98 23.45 21.56 18.92 20.34 19.39 15.25 10.17
44.67 45.84 41.42 38.56 36.98 37.36 36.07 36.98 36.18 35.54 35.94 35.04 34.74 34.49 33.82 33.79 33.48 33.81 33.07 32.05 28.82 27.59 27.33 25.03 22.84 20.30 21.54 20.46 18.61 17.72 19.42 25.63 19.89 22.38 20.34 15.20 14.23 8.52 7.63 12.50 14.69 9.23 7.98
43.99 43.21 39.41 36.00 35.35 36.37 35.26 36.06 36.43 36.28 36.01 35.79 35.23 34.57 34.21 34.23 33.85 32.83 32.95 31.96 27.23 30.24 28.04 26.38 25.95 23.02 20.30 20.52 22.58 20.53 14.85 13.74 15.52 10.26 7.11 5.96 5.51 5.30 6.39 9.13 11.88 13.89 15.24
43.21 41.88 39.20 37.39 37.06 36.55 35.79 35.74 36.56 36.83 35.89 34.41 34.42 34.36 34.21 34.09 33.04 32.33 30.37 32.35 30.80 31.88 32.86 31.72 29.60 25.32 28.66 28.08 27.98 27.53 26.27 25.04 24.20 11.76 10.73 8.84 9.81 12.26 14.87 15.60 17.78 18.89 14.50
MSLP
1006.38 1007.20 1008.25 1009.35 1010.54 1011.78 1013.08 1014.32 1015.61 1016.54 1017.14 1017.68 1018.14 1018.55 1018.96 1019.40 1019.80 1019.90 1019.80 1019.84 1019.89 1020.06 1020.31 1020.32 1020.42 1020.36 1020.63 1020.99 1020.96 1020.76 1020.84 1020.78 1020.28 1020.26 1020.19 1020.02 1019.80 1020.28 1020.67 1020.74 1021.06 1021.48 1021.79
1006.62 1007.32 1008.10 1009.26 1010.47 1011.80 1012.90 1013.96 1015.06 1016.11 1016.79 1017.31 1017.73 1018.14 1018.78 1019.43 1019.73 1020.09 1020.32 1020.41 1020.48 1020.39 1020.43 1020.71 1020.75 1020.90 1021.09 1021.22 1021.21 1021.20 1021.39 1021.42 1021.02 1021.06 1021.07 1021.23 1021.11 1021.19 1021.46 1021.36 1021.62 1021.97 1022.21
1006.03 1007.15 1008.18 1009.11 1010.28 1011.53 1012.71 1013.74 1014.65 1015.62 1016.48 1017.27 1017.86 1018.47 1018.98 1019.67 1020.39 1020.63 1020.83 1020.79 1020.78 1020.76 1020.88 1021.06 1021.28 1021.24 1021.44 1021.82 1021.87 1021.74 1021.79 1021.91 1021.68 1021.38 1021.60 1022.06 1022.26 1022.29 1022.26 1022.44 1022.46 1022.43 1022.75
1005.18 1006.83 1008.15 1009.33 1010.12 1011.29 1012.45 1013.41 1014.31 1015.19 1016.31 1016.93 1017.49 1018.23 1018.83 1019.61 1020.34 1020.77 1021.06 1021.04 1020.99 1021.19 1021.16 1021.56 1021.65 1021.75 1021.99 1022.23 1022.11 1021.98 1022.12 1022.09 1022.33 1022.05 1022.23 1022.36 1022.58 1023.05 1023.29 1023.00 1023.24 1023.16 1023.27
1005.23 1006.88 1008.08 1009.28 1010.39 1011.29 1012.33 1013.46 1014.22 1015.13 1016.12 1016.67 1017.08 1017.88 1018.71 1019.20 1019.84 1020.63 1020.98 1021.17 1021.30 1021.35 1021.65 1021.98 1022.04 1022.20 1022.36 1022.37 1022.38 1022.41 1022.55 1022.49 1022.60 1022.81 1022.93 1023.05 1023.41 1023.64 1023.89 1024.53 1024.17 1023.89 1023.80
1006.29 1007.47 1008.54 1009.43 1010.64 1011.40 1012.35 1013.36 1014.12 1015.10 1015.62 1016.29 1016.85 1017.68 1018.41 1019.09 1019.85 1020.64 1021.18 1021.32 1021.38 1021.67 1021.95 1022.07 1022.30 1022.40 1022.42 1022.56 1022.82 1022.80 1022.95 1023.02 1023.14 1023.36 1023.62 1023.86 1024.15 1024.47 1024.62 1025.07 1024.90 1024.66 1024.40
1007.28 1007.96 1008.80 1009.80 1010.66 1011.58 1012.48 1013.26 1013.96 1015.03 1015.53 1016.01 1016.72 1017.36 1018.03 1018.52 1019.01 1019.85 1020.67 1021.12 1021.54 1021.95 1022.23 1022.30 1022.42 1022.46 1022.55 1022.80 1022.99 1023.25 1023.50 1023.72 1023.74 1024.03 1024.12 1024.14 1024.38 1024.57 1024.78 1025.02 1025.03 1024.84 1024.58
1008.10 1008.70 1009.28 1009.91 1010.73 1011.73 1012.52 1013.20 1014.08 1014.97 1015.45 1016.08 1016.69 1017.16 1017.52 1017.96 1018.43 1019.20 1020.09 1020.78 1021.36 1021.87 1022.20 1022.41 1022.36 1022.47 1022.65 1023.11 1023.36 1023.52 1023.80 1023.98 1024.12 1024.27 1024.33 1024.37 1024.86 1024.87 1025.00 1025.03 1025.14 1025.25 1025.23
1008.81 1009.48 1010.01 1010.41 1011.02 1011.94 1012.73 1013.25 1013.98 1014.91 1015.40 1016.02 1016.62 1017.22 1017.66 1018.13 1018.37 1018.65 1019.60 1020.64 1021.09 1021.54 1022.04 1022.32 1022.50 1022.67 1022.86 1023.27 1023.51 1023.85 1024.05 1024.16 1024.24 1024.63 1024.70 1024.87 1024.99 1025.01 1025.05 1024.98 1025.02 1025.30 1026.07
1009.25 1009.78 1010.59 1011.12 1011.88 1011.93 1012.48 1013.39 1013.89 1014.79 1015.37 1016.03 1016.68 1017.15 1017.60 1018.07 1018.57 1018.90 1019.74 1020.50 1020.95 1021.31 1021.90 1022.31 1022.67 1022.74 1022.97 1023.14 1023.58 1024.12 1024.18 1024.33 1024.54 1024.88 1024.91 1025.05 1025.12 1025.38 1025.28 1025.18 1025.27 1025.49 1025.90
1010.42 1010.70 1011.05 1011.55 1012.21 1012.81 1012.90 1013.30 1013.68 1014.48 1015.07 1015.73 1016.64 1017.41 1017.80 1018.21 1018.68 1019.21 1019.76 1020.33 1020.88 1021.26 1021.87 1022.19 1022.60 1022.78 1023.14 1023.27 1023.76 1024.49 1024.47 1024.64 1024.85 1025.07 1025.36 1025.51 1025.61 1025.88 1025.70 1025.67 1025.74 1025.95 1025.95
1010.40 1010.22 1010.63 1011.18 1011.78 1012.28 1012.47 1012.77 1013.24 1013.81 1014.34 1015.12 1016.31 1017.26 1017.79 1018.42 1019.08 1019.62 1020.03 1020.44 1020.76 1021.14 1021.66 1022.03 1022.47 1022.80 1023.14 1023.48 1024.00 1024.44 1024.62 1025.15 1025.36 1025.51 1025.87 1026.27 1026.31 1026.42 1026.46 1026.38 1026.51 1026.39 1026.07
1008.89 1009.34 1009.71 1010.39 1010.72 1011.30 1012.26 1012.91 1012.80 1013.04 1013.76 1014.59 1015.73 1016.98 1017.63 1017.92 1018.81 1019.44 1020.02 1020.45 1020.77 1021.19 1021.53 1021.99 1022.53 1022.85 1023.21 1023.73 1024.08 1024.48 1024.99 1025.55 1025.72 1026.02 1026.46 1026.86 1026.78 1027.14 1027.16 1027.09 1026.98 1026.80 1026.56
1008.42 1008.80 1009.41 1009.94 1009.99 1010.57 1011.11 1011.04 1012.48 1012.90 1013.41 1013.63 1015.19 1016.37 1017.45 1018.23 1018.89 1019.43 1019.51 1020.33 1020.74 1021.20 1021.65 1022.14 1022.62 1022.99 1023.41 1023.84 1024.13 1024.61 1025.20 1025.76 1026.16 1026.52 1026.97 1027.30 1027.36 1027.56 1027.59 1027.56 1027.54 1027.45 1027.19
1008.59 1008.88 1008.97 1009.10 1009.40 1010.38 1010.74 1011.12 1011.95 1012.64 1013.02 1013.62 1014.76 1015.77 1017.11 1017.81 1018.78 1019.52 1019.60 1020.23 1020.71 1021.24 1021.76 1022.31 1022.81 1023.26 1023.72 1024.05 1024.18 1024.62 1025.19 1025.86 1026.51 1026.99 1027.39 1027.68 1027.51 1027.58 1027.77 1027.94 1028.06 1027.90 1027.83
1008.92 1008.92 1008.81 1008.71 1008.87 1009.05 1009.99 1010.49 1011.41 1012.13 1012.87 1013.46 1014.43 1015.56 1016.77 1017.65 1018.55 1019.17 1019.65 1020.22 1020.74 1021.34 1021.89 1022.52 1023.17 1023.73 1024.18 1024.15 1024.14 1024.69 1025.26 1025.94 1026.65 1027.27 1027.60 1027.75 1027.84 1027.79 1027.92 1028.11 1028.17 1028.44 1028.51
1009.65 1009.13 1009.14 1009.21 1008.71 1009.31 1010.03 1010.48 1011.30 1012.07 1012.77 1013.47 1014.34 1015.24 1016.23 1017.32 1018.22 1018.91 1019.57 1020.18 1020.78 1021.42 1022.23 1022.94 1023.43 1024.02 1024.34 1024.34 1024.47 1024.93 1025.63 1026.27 1026.88 1027.43 1027.86 1028.15 1028.28 1028.39 1028.33 1028.28 1028.29 1028.60 1028.82
1009.96 1009.76 1009.19 1008.82 1008.67 1009.02 1009.67 1010.41 1011.14 1011.90 1012.64 1013.30 1014.07 1014.95 1015.91 1016.97 1017.87 1018.69 1019.44 1020.10 1020.66 1021.36 1022.19 1022.98 1023.55 1024.06 1024.45 1024.52 1024.63 1025.19 1026.07 1026.60 1027.15 1027.68 1028.07 1028.43 1028.91 1028.88 1028.94 1028.72 1028.81 1029.06 1029.29
1008.97 1009.07 1008.32 1008.43 1008.56 1008.87 1009.28 1010.13 1010.93 1011.78 1012.50 1012.99 1013.63 1014.43 1015.33 1016.41 1017.47 1018.35 1019.16 1019.87 1020.55 1021.32 1022.03 1022.82 1023.58 1024.11 1024.43 1024.56 1024.82 1025.47 1026.18 1026.75 1027.25 1027.84 1028.28 1028.57 1029.12 1028.50 1028.24 1028.76 1029.00 1029.38 1029.63
1008.05 1007.98 1007.77 1007.98 1008.59 1009.36 1009.58 1010.21 1010.94 1011.51 1012.18 1012.72 1013.33 1014.05 1014.86 1015.75 1016.81 1017.92 1018.87 1019.58 1020.35 1021.16 1021.86 1022.60 1023.36 1023.91 1024.32 1024.51 1024.78 1025.47 1026.10 1026.62 1027.05 1027.44 1027.71 1028.06 1028.62 1028.43 1028.34 1028.59 1028.91 1029.63 1029.82
1007.70 1007.66 1007.81 1008.26 1008.67 1009.02 1009.60 1010.39 1011.03 1011.55 1012.04 1012.64 1013.11 1013.76 1014.56 1015.48 1016.51 1017.57 1018.58 1019.36 1020.14 1021.02 1021.53 1022.20 1022.95 1023.50 1023.93 1024.34 1024.55 1024.96 1025.71 1026.19 1026.69 1027.04 1027.54 1027.80 1027.97 1028.26 1028.35 1028.44 1028.81 1029.13 1029.55
1007.17 1007.42 1007.54 1008.02 1008.47 1008.95 1009.70 1010.51 1011.10 1011.41 1012.02 1012.58 1013.15 1013.88 1014.72 1015.74 1016.63 1017.43 1018.32 1019.44 1019.94 1020.30 1021.08 1021.82 1022.65 1023.21 1023.63 1023.89 1024.19 1024.74 1025.29 1025.88 1026.03 1026.46 1027.02 1027.56 1027.74 1028.14 1028.43 1028.81 1028.78 1028.89 1029.23
1007.06 1007.01 1007.18 1007.95 1008.58 1009.12 1009.77 1010.67 1011.15 1011.55 1011.99 1012.72 1013.39 1014.23 1015.23 1015.99 1016.78 1017.48 1018.44 1019.18 1019.22 1019.75 1020.58 1021.36 1022.24 1022.98 1023.41 1023.63 1023.85 1024.47 1025.02 1025.43 1025.78 1026.21 1026.59 1027.01 1027.44 1027.89 1028.39 1028.47 1028.56 1028.93 1029.63
1006.98 1006.90 1007.40 1008.11 1008.82 1009.38 1009.91 1010.49 1011.14 1011.60 1011.96 1012.76 1013.69 1014.48 1015.26 1016.05 1016.74 1017.46 1018.02 1018.36 1018.78 1019.28 1020.06 1020.95 1021.78 1022.48 1023.21 1023.59 1024.05 1024.82 1025.30 1025.31 1025.98 1026.03 1026.74 1027.42 1027.93 1028.50 1028.90 1028.84 1028.66 1029.23 1029.38
1006.38 1006.76 1007.42 1008.18 1008.93 1009.46 1010.03 1010.60 1011.16 1011.60 1012.10 1012.66 1013.59 1014.36 1015.08 1015.74 1016.40 1017.00 1017.35 1017.90 1017.95 1018.40 1019.35 1020.22 1020.96 1021.82 1022.72 1022.96 1023.43 1024.15 1024.74 1025.25 1025.94 1027.06 1027.60 1027.70 1028.01 1028.25 1028.41 1028.49 1028.65 1028.84 1028.90
1006.67 1007.02 1007.57 1008.22 1008.91 1009.44 1010.03 1010.59 1011.09 1011.61 1012.06 1012.75 1013.37 1014.00 1014.69 1015.40 1016.13 1016.81 1017.40 1017.64 1017.49 1017.99 1018.39 1018.87 1019.62 1020.51 1020.92 1021.80 1022.52 1023.22 1023.93 1024.55 1025.23 1026.08 1026.76 1027.02 1027.23 1027.42 1027.56 1027.69 1027.80 1027.91 1028.02
Wind_Speed
17 19 19 21 19 16 17 15 13 9 6 4 4 4 5 4 4 4 6 6 5 6 5 4 5 4 5 5 5 3 5 5 5 3 4 4 5 7 5 5 6 9 8
17 18 18 20 18 17 16 15 14 10 7 5 4 4 5 4 4 4 5 5 6 5 6 5 5 6 5 6 6 5 3 3 5 2 2 3 4 5 4 5 5 7 6
23 20 20 20 19 17 16 16 14 12 7 6 7 5 7 5 3 3 3 4 5 6 6 7 5 6 5 4 4 5 5 3 4 8 3 3 1 2 4 7 5 6 7
22 18 20 17 18 15 15 15 14 11 9 9 10 11 5 6 4 4 4 4 6 6 6 6 6 6 4 5 4 5 4 4 4 3 5 8 3 3 3 3 5 4 8
22 20 19 17 14 13 11 12 13 9 10 9 9 6 5 5 8 6 8 6 5 6 6 6 6 6 4 5 6 6 6 4 5 4 3 5 5 5 4 1 4 3 3
17 15 13 14 11 10 10 9 13 9 9 8 8 9 11 10 8 7 6 5 4 4 5 6 6 5 5 6 5 6 7 6 6 5 5 4 3 2 4 3 1 0 2
13 15 16 13 12 12 10 9 10 9 8 9 8 10 12 12 12 9 7 8 4 3 5 5 5 3 5 6 6 6 7 5 5 5 4 3 4 2 2 2 0 1 1
9 12 14 13 10 13 11 10 9 9 9 9 8 7 8 7 7 7 7 6 6 5 5 5 6 6 6 6 6 4 4 5 5 7 5 3 3 2 2 2 3 3 4
8 6 8 9 12 12 10 11 9 8 9 9 7 7 7 7 8 10 8 7 7 6 7 6 6 6 7 6 6 4 5 5 5 5 5 3 2 3 3 2 3 4 2
8 9 6 6 8 11 11 9 10 11 9 8 7 6 6 8 8 8 10 9 6 7 8 7 6 6 6 7 6 4 5 6 4 3 6 4 3 4 3 3 4 3 3
7 6 6 6 9 8 11 10 9 11 11 11 7 7 6 8 7 8 8 8 9 8 7 7 6 6 6 7 7 5 6 6 6 6 7 7 6 4 4 4 3 3 2
6 7 7 8 12 13 13 13 10 14 14 14 10 9 8 7 7 7 8 7 8 7 7 7 6 6 6 6 6 6 6 6 7 7 8 7 6 7 6 4 5 4 3
9 8 9 11 13 12 10 10 12 15 15 14 12 10 9 11 10 9 8 7 7 7 7 7 6 7 7 7 6 7 7 7 7 8 8 5 6 6 4 5 5 4 5
12 11 9 12 12 15 14 15 11 12 13 14 14 12 10 8 9 7 10 7 7 7 7 7 7 7 6 6 7 8 8 8 8 8 7 6 6 5 5 5 5 5 4
4 3 9 11 11 9 9 11 9 13 14 15 14 14 11 10 9 8 8 7 7 7 7 8 7 6 6 4 6 7 8 9 8 7 7 5 8 12 9 4 4 4 4
7 8 5 8 13 19 15 13 12 14 14 14 14 13 12 11 10 9 8 8 7 8 8 7 8 6 4 8 11 9 7 7 8 7 6 5 7 8 10 10 12 8 4
8 9 14 13 12 11 10 11 11 11 12 13 13 14 13 12 11 10 10 9 9 8 8 8 8 6 4 10 14 15 7 7 6 6 5 5 4 5 3 8 9 10 10
8 10 3 10 5 9 10 10 11 12 12 13 14 14 13 12 12 11 10 8 9 9 9 7 7 7 5 11 15 15 7 6 6 5 6 7 3 2 4 4 5 5 4
6 4 3 13 6 12 12 13 10 12 13 13 14 15 15 14 13 12 10 8 9 9 8 8 8 8 6 15 16 12 7 7 6 4 5 6 4 5 4 4 4 2 1
9 7 6 2 7 9 13 12 10 10 13 12 13 14 15 15 15 13 10 9 9 8 8 9 9 12 9 17 17 12 5 7 6 5 4 12 7 5 3 3 4 4 3
9 3 5 6 7 8 11 8 8 9 9 10 12 13 14 13 13 12 9 9 8 10 9 10 9 10 12 12 19 17 4 4 6 6 5 4 10 7 5 4 3 4 3
10 6 4 5 5 7 8 8 7 8 8 7 7 10 11 10 9 12 9 9 10 10 10 10 7 7 8 16 18 17 12 6 7 8 6 6 12 9 6 5 4 4 1
3 4 6 7 6 6 7 8 5 8 10 10 10 9 11 10 10 10 10 10 9 8 8 8 7 6 6 6 16 16 11 4 2 6 12 16 13 10 5 7 5 3 0
7 5 5 7 7 6 6 6 8 7 12 13 12 11 11 10 9 8 9 9 7 7 8 7 6 5 5 5 4 4 5 8 6 10 8 6 5 5 4 3 4 3 3
6 5 6 6 7 7 8 8 8 8 10 12 12 11 9 10 8 4 6 8 5 9 8 7 8 8 7 7 12 11 6 6 6 5 3 2 2 2 2 2 4 3 3
3 5 6 8 7 8 8 9 10 9 10 10 9 9 8 7 6 6 4 8 6 10 12 17 12 5 12 21 22 21 19 18 16 3 3 4 4 5 6 6 6 6 6
Wind_Direction
153 136 131 134 134 130 130 129 130 129 129 125 128 124 125 114 90 81 80 67 50 62 53 63 57 64 72 55 26 354 27 9 354 26 357 33 67 76 86 81 75 88 80
147 141 134 138 136 136 135 137 140 142 153 158 165 141 131 107 117 99 82 74 61 56 67 61 54 60 66 49 34 26 24 16 18 57 77 70 32 52 52 78 86 86 91
152 150 138 140 138 143 144 146 147 156 162 132 118 97 98 96 82 97 96 88 80 67 64 61 63 67 63 55 43 30 39 56 18 46 99 83 137 48 358 34 40 82 95
150 142 138 145 147 148 143 149 153 164 143 146 127 146 147 148 141 138 121 97 78 74 69 70 68 77 71 68 53 45 49 66 45 14 43 63 76 116 139 25 33 56 87
143 146 149 143 141 138 139 146 156 141 150 145 150 145 141 126 128 131 119 112 94 87 86 80 76 77 84 74 66 46 47 49 75 64 33 41 38 42 89 20 335 24 48
146 136 133 134 134 138 143 143 155 146 157 139 164 145 141 137 135 141 135 134 122 113 108 97 86 83 79 78 74 62 56 51 55 70 63 76 106 51 77 102 332 269 349
137 143 145 149 151 150 141 138 134 145 147 136 145 146 151 150 151 150 152 145 134 120 113 111 103 90 91 85 82 76 69 51 64 96 95 77 70 88 81 93 317 77 33
141 152 157 153 144 141 140 140 137 148 139 133 135 139 141 148 147 142 151 141 139 136 131 116 108 98 92 97 95 93 102 81 64 73 97 96 88 86 125 129 110 42 34
86 132 136 142 137 145 147 148 138 142 138 140 138 146 140 138 142 134 123 133 138 134 127 123 114 114 106 108 106 98 95 95 74 67 81 100 91 69 55 65 87 128 86
54 84 96 115 150 148 149 148 144 153 152 141 141 147 138 128 128 121 130 139 142 123 133 131 134 125 123 117 101 91 100 102 90 75 64 60 66 53 41 58 64 70 119
51 79 132 125 146 151 160 169 156 155 149 145 143 137 133 131 131 134 135 135 137 139 140 140 141 127 113 112 107 106 98 94 93 72 57 46 57 35 38 52 50 44 68
258 205 174 159 165 175 175 180 165 163 159 150 147 147 136 131 131 135 144 141 145 141 144 143 137 130 122 109 122 104 96 93 86 77 64 43 57 39 24 41 39 31 351
224 204 181 181 180 175 176 190 176 168 159 153 149 149 152 149 151 149 148 148 143 141 139 132 133 127 123 119 115 108 98 91 87 81 75 55 59 47 28 33 34 16 12
225 210 206 206 186 190 190 175 179 165 159 146 152 151 151 150 156 157 148 148 144 141 139 135 128 123 129 137 129 120 112 106 96 90 84 74 72 70 59 49 23 17 32
236 221 223 209 185 187 176 173 160 161 157 152 153 156 154 147 152 159 148 149 144 141 136 128 123 116 108 91 127 127 126 122 113 109 112 115 102 86 84 76 36 34 46
316 317 252 214 200 190 186 170 160 164 160 158 156 154 152 152 158 158 152 149 137 133 126 117 114 106 101 97 124 116 110 112 128 122 102 90 103 93 98 91 79 75 69
356 8 347 297 199 188 181 176 159 155 161 158 154 158 157 158 161 157 154 151 146 131 124 128 127 124 123 116 119 113 105 105 101 112 130 111 90 75 83 128 94 85 75
337 335 2 304 197 166 169 161 157 168 171 167 164 163 162 156 159 160 160 150 154 143 144 142 135 133 157 146 129 122 113 108 110 114 125 124 128 129 96 96 98 103 98
297 252 26 289 185 173 162 167 169 167 178 176 172 170 167 158 162 168 165 158 156 148 152 155 152 156 170 165 147 133 134 137 141 133 117 133 145 154 122 122 126 104 303
304 273 281 187 131 165 161 165 176 167 182 175 174 172 171 165 168 165 166 163 163 158 169 166 172 177 167 178 169 156 154 161 163 154 171 156 158 151 123 91 157 146 236
272 321 155 170 166 150 157 157 165 171 171 167 175 173 172 169 164 156 157 161 174 180 178 177 175 170 172 183 184 184 179 183 179 174 168 168 165 155 140 105 117 166 192
247 216 191 162 153 126 140 161 176 164 154 148 143 150 156 155 158 156 151 183 202 180 179 176 154 169 170 180 188 196 200 214 193 181 162 163 168 163 157 140 158 184 242
285 195 187 142 143 133 135 160 175 158 142 134 132 135 145 156 152 152 175 205 192 175 174 171 160 165 164 168 180 189 193 227 117 139 156 161 166 166 170 183 198 183 143
256 209 188 152 147 140 135 147 153 162 149 142 146 153 158 161 163 182 195 198 189 163 167 164 166 147 156 157 145 155 167 137 116 133 144 154 150 153 186 217 228 193 190
271 147 145 151 156 141 135 143 152 157 155 153 159 165 173 177 178 183 198 204 193 171 170 176 167 159 175 188 171 168 168 161 162 126 100 106 124 182 212 229 226 226 220
159 150 145 143 156 145 142 150 157 162 157 160 165 170 168 169 165 155 125 43 125 187 176 168 169 184 172 174 182 186 189 185 173 139 165 183 192 195 206 206 212 212 207